Simultaneous Nadir Overpasses (SNOs) Predictions

Prediction of SNOs between NOAA-19 and TERRA Satellite Orbit:

Table of predicted SNOs for the next 14.0 days since TLE Epoch: 2/18/2023
Index Date (NOAA-19) Time (NOAA-19) Lat,Lon (NOAA-19) SZA (NOAA-19 ) Date (TERRA) Time (TERRA) Lat,Lon (TERRA) SZA (TERRA ) Distance(km) Time Diff (sec)
1 02/18/2023 13:39:37 80.93, 10.33 93.81 02/18/2023 13:39:22 80.93, 10.31 93.80 0.32 15
2 02/20/2023 17:30:13 -80.93, 132.84 86.94 02/20/2023 17:30:06 -80.94, 132.68 86.96 2.95 7
3 02/22/2023 21:20:59 80.93,-105.03 92.27 02/22/2023 21:20:49 80.92,-105.18 92.25 2.66 10
4 02/25/2023 01:11:35 -80.93, 17.16 88.53 02/25/2023 01:11:32 -80.93, 17.21 88.53 0.85 3
5 02/27/2023 05:02:20 80.93, 139.64 90.69 02/27/2023 05:02:13 80.93, 139.56 90.68 1.47 7
6 03/01/2023 08:52:55 -80.93, -98.02 90.12 03/01/2023 08:52:55 -80.94, -98.04 90.11 1.37 0



Historial Predications of SNOs between NOAA-19 and TERRA
